"2009-04-10 00:00:30",786573,7.177,104,6.99,1.09,5.524,101.4765,3.067,4.364,61.81,0,109.8,13.47,3.83,66.0
"2009-04-10 00:01:00",786574,8.04,108.6,6.319,1.086,6.903,101.4733,3.059,4.327,61.88,0,109.8,13.47,3.82,70.6
"2009-04-10 00:01:30",786575,7.93,104.8,6.709,1.216,6.111,101.4651,3.038,4.222,61.89,0,109.8,13.47,3.80,66.8
"2009-04-10 00:02:00",786576,8.64,114.3,5.604,0.954,7.825,101.4597,3.024,4.35,62.07,0,109.8,13.47,3.79,76.3
"2009-04-10 00:02:30",786577,8.35,115.4,6.23,1.065,7.403,101.4583,3.02,4.307,61.96,0,109.8,13.47,3.78,77.4
"2009-04-10 00:03:00",786578,8.65,115.2,5.581,1.014,7.229,101.458,3.02,4.32,61.99,0,109.8,13.48,3.78,77.2
"2009-04-10 00:03:30",786579,8.39,113.6,7.165,1.265,6.664,101.4586,3.021,4.25,61.91,0,109.8,13.48,3.78,75.6
"2009-04-10 00:04:00",786580,8.39,111.5,5.997,1.143,6.711,101.4586,3.021,4.296,61.85,0,109.8,13.48,3.78,73.5
"2009-04-10 00:04:30",786581,8.67,115.3,8.25,1.096,6.747,101.4586,3.021,4.265,61.72,0,109.8,13.48,3.78,77.3
"2009-04-10 00:05:00",786582,9.12,117.2,8.22,1.134,7.004,101.4586,3.021,4.26,61.9,0,109.8,13.48,3.78,79.2
"2009-04-10 00:05:30",786583,8.08,118,5.252,1.259,7.552,101.4583,3.02,4.301,62.05,0,109.8,13.48,3.78,80.0
"2009-04-10 00:06:00",786584,8.48,115,5.497,0.784,8.08,101.4558,3.014,4.274,61.98,0,109.8,13.48,3.78,77.0
"2009-04-10 00:06:30",786585,7.441,117.9,9.33,1.321,6.371,101.453,3.007,4.222,61.93,0,109.8,13.48,3.77,79.9
"2009-04-10 00:07:00",786586,8.14,108,6.493,1.127,6.785,101.4507,3.001,4.258,61.9,0,109.8,13.48,3.76,70.0
"2009-04-10 00:07:30",786587,7.018,104.3,5.094,1.699,5.331,101.4459,2.989,4.106,62.34,0,109.8,13.48,3.75,66.3
"2009-04-10 00:08:00",786588,8.01,112,5.087,1.094,6.934,101.4363,2.964,4.258,62.78,0,109.8,13.48,3.73,74.0
"2009-04-10 00:08:30",786589,7.571,114.4,5.412,1.016,7.899,101.425,2.935,4.339,62.72,0,109.8,13.48,3.70,76.4
"2009-04-10 00:09:00",786590,8.19,116.1,5.313,1.005,7.471,101.4247,2.935,4.235,62.54,0,109.8,13.48,3.70,78.1
"2009-04-10 00:09:30",786591,7.992,106.5,7.727,1.362,6.543,101.4247,2.935,4.194,62.48,0,109.8,13.48,3.70,68.5
"2009-04-10 00:10:00",786592,8.55,111,4.971,1.015,7.585,101.4247,2.935,4.219,62.6,0,109.8,13.48,3.70,73.0
"2009-04-10 00:10:30",786593,8.39,108.9,5.346,1.054,7.114,101.4227,2.929,4.179,62.79,0,109.8,13.49,3.69,70.9
"2009-04-10 00:11:00",786594,8.27,104.5,5.795,1.053,7.273,101.4168,2.914,4.164,63.04,0,109.8,13.49,3.68,66.5
"2009-04-10 00:11:30",786595,7.82,109.2,7.308,0.969,7.578,101.412,2.902,4.224,63.75,0,109.8,13.49,3.66,71.2
"2009-04-10 00:12:00",786596,6.745,100.9,8.38,1.158,6.988,101.4001,2.872,4.116,64.5,0,109.8,13.49,3.63,62.9
"2009-04-10 00:12:30",786597,4.858,93.6,13.29,1.335,5.223,101.3908,2.848,4.142,64.79,0,109.8,13.49,3.61,55.6
"2009-04-10 00:13:00",786598,5.665,110.1,11.15,0.881,7.031,101.3908,2.848,4.171,65.6,0,109.8,13.49,3.61,72.1
"2009-04-10 00:13:30",786599,6.829,123.7,8.93,1.082,6.652,101.3707,2.797,4.102,65.7,0,109.8,13.49,3.56,85.7
"2009-04-10 00:14:00",786600,6.311,123.3,7.874,1.646,6.037,101.3568,2.761,4.096,65.51,0,109.7,13.49,3.52,85.3
"2009-04-10 00:14:30",786601,7.26,117.1,7.819,1.211,6.809,101.3529,2.751,4.056,65.1,0,109.7,13.48,3.51,79.1
"2009-04-10 00:15:00",786602,7.221,102.9,5.365,0.994,6.235,101.3393,2.717,4.065,64.75,0,109.8,13.48,3.48,64.9
"2009-04-10 00:15:30",786603,7.736,117.8,6.456,1.255,6.943,101.3266,2.684,4.017,64.77,0,109.8,13.48,3.45,79.8
"2009-04-10 00:16:00",786604,7.306,126.1,6.939,0.669,7.935,101.3218,2.672,4.078,65.27,0,109.7,13.48,3.43,88.1
"2009-04-10 00:16:30",786605,6.528,126.2,8.64,0.907,7.99,101.3068,2.634,4.011,65.1,0,109.7,13.48,3.39,88.2
"2009-04-10 00:17:00",786606,6.48,108.9,7.655,1.493,6.122,101.2998,2.616,3.947,65.03,0,109.7,13.49,3.38,70.9
"2009-04-10 00:17:30",786607,7.085,107,6.484,1.197,6.881,101.2919,2.596,3.927,65.57,0,109.7,13.49,3.36,69.0
"2009-04-10 00:18:00",786608,7.935,112.8,7.295,1.316,6.618,101.2939,2.601,3.876,65.82,0,109.7,13.49,3.36,74.8
"2009-04-10 00:18:30",786609,8.21,122.6,8.34,1.177,6.9,101.2911,2.594,3.942,66.27,0,109.7,13.49,3.35,84.6
"2009-04-10 00:19:00",786610,7.74,117.6,6.864,0.704,7.492,101.2685,2.536,3.94,67.18,0,109.7,13.49,3.30,79.6
"2009-04-10 00:19:30",786611,8.33,128,6.957,0.891,7.788,101.266,2.529,3.949,67.61,0,109.7,13.49,3.29,90.0
"2009-04-10 00:20:00",786612,8.71,124.8,8.22,0.71,7.834,101.2496,2.488,3.911,67.56,0,109.7,13.49,3.25,86.8
"2009-04-10 00:20:30",786613,8.97,102,10.28,0.667,7.206,101.238,2.458,3.897,67.97,0,109.7,13.5,3.22,64.0
"2009-04-10 00:21:00",786614,9.16,112.3,5.722,0.87,7.062,101.2321,2.443,3.869,68.32,0,109.7,13.5,3.20,74.3
"2009-04-10 00:21:30",786615,7.738,117.7,9.05,0.964,7.12,101.2118,2.391,3.845,68.41,0,109.7,13.5,3.15,79.7
"2009-04-10 00:22:00",786616,7.946,125.1,6.79,0.777,6.864,101.2058,2.376,3.811,68.48,0,109.7,13.5,3.14,87.1
"2009-04-10 00:22:30",786617,5.784,113.1,7.196,1.206,4.274,101.1877,2.33,3.628,68.5,0,109.7,13.5,3.09,75.1
"2009-04-10 00:23:00",786618,6.229,113.4,5.789,0.682,2.593,101.1736,2.294,3.44,68.49,0,109.7,13.5,3.05,75.4
"2009-04-10 00:23:30",786619,7.23,111.8,6.563,1.308,5.861,101.1725,2.291,3.631,68.79,0,109.7,13.5,3.05,73.8
"2009-04-10 00:24:00",786620,7.15,108.6,10.19,0.821,7.407,101.155,2.246,3.66,68.91,0,109.7,13.5,3.01,70.6
"2009-04-10 00:24:30",786621,8.1,115.8,5.614,0.802,8.1,101.1448,2.22,3.687,68.81,0,109.7,13.5,2.98,77.8
"2009-04-10 00:25:00",786622,7.382,108.2,7.218,0.669,7.824,101.1411,2.211,3.638,68.73,0,109.7,13.5,2.97,70.2
"2009-04-10 00:25:30",786623,6.504,110.6,6.589,1.234,7.077,101.1454,2.222,3.552,68.69,0,109.7,13.5,2.98,72.6
"2009-04-10 00:26:00",786624,5.369,106.5,7.088,1.41,4.715,101.1451,2.221,3.405,68.72,0,109.7,13.5,2.98,68.5
"2009-04-10 00:26:30",786625,5.436,107.3,8.57,1.497,4.693,101.1449,2.22,3.422,68.95,0,109.7,13.5,2.98,69.3
"2009-04-10 00:27:00",786626,6.132,100.9,6.038,1.023,5.566,101.1432,2.216,3.302,68.98,0,109.7,13.5,2.98,62.9
"2009-04-10 00:27:30",786627,6.593,103,6.796,0.98,7.298,101.1392,2.206,3.535,69.46,0,109.7,13.51,2.97,65.0
"2009-04-10 00:28:00",786628,6.55,105.9,7.713,0.849,7.378,101.1344,2.194,3.564,69.76,0,109.7,13.51,2.95,67.9
"2009-04-10 00:28:30",786629,7.063,100.3,4.879,0.702,7.554,101.1273,2.176,3.557,69.97,0,109.7,13.51,2.94,62.3
"2009-04-10 00:29:00",786630,6.566,102.7,5.23,1.168,6.339,101.1262,2.173,3.436,70.08,0,109.7,13.51,2.93,64.7
"2009-04-10 00:29:30",786631,4.822,116.9,8.75,1.071,4.35,101.1203,2.158,3.358,70.18,0,109.7,13.51,2.92,78.9
"2009-04-10 00:30:00",786632,4.505,99.6,7.043,0.658,3.991,101.1201,2.157,3.386,70.3,0,109.7,13.51,2.92,61.6
"2009-04-10 00:30:30",786633,5.642,119.3,7.852,1.184,6.165,101.1198,2.156,3.385,70.4,0,109.7,13.51,2.92,81.3
"2009-04-10 00:31:00",786634,6.722,114.9,7.087,0.966,7.289,101.1198,2.156,3.53,70.49,0,109.7,13.51,2.92,76.9
"2009-04-10 00:31:30",786635,6.573,134.5,6.098,0.835,7.53,101.1198,2.156,3.535,70.4,0,109.7,13.51,2.92,96.5
"2009-04-10 00:32:00",786636,5.882,129.1,8.15,1.063,6.995,101.1198,2.156,3.465,70.27,0,109.7,13.51,2.92,91.1
"2009-04-10 00:32:30",786637,4.091,97.5,5.983,1.027,3.668,101.1198,2.156,3.315,70.08,0,109.7,13.51,2.92,59.5
"2009-04-10 00:33:00",786638,5.04,96.5,3.238,0.766,3.115,101.1198,2.156,3.287,69.97,0,109.7,13.51,2.92,58.5
"2009-04-10 00:33:30",786639,7.001,109.5,7.82,1.205,6.822,101.1198,2.156,3.373,69.77,0,109.7,13.51,2.92,71.5
"2009-04-10 00:34:00",786640,8.1,119.2,8.78,0.841,7.628,101.1198,2.156,3.513,69.63,0,109.7,13.51,2.92,81.2
"2009-04-10 00:34:30",786641,7.58,108.1,5.711,1.092,7.494,101.1198,2.156,3.488,69.48,0,109.7,13.51,2.92,70.1
"2009-04-10 00:35:00",786642,7.534,109.8,7.635,1.01,7.418,101.1198,2.156,3.478,69.55,0,109.7,13.51,2.92,71.8
"2009-04-10 00:35:30",786643,6.023,114.3,14.6,1.304,6.646,101.1198,2.156,3.438,69.7,0,109.7,13.51,2.92,76.3
"2009-04-10 00:36:00",786644,4.329,130,5.473,1.374,5.033,101.1198,2.156,3.376,69.76,0,109.7,13.51,2.92,92.0
"2009-04-10 00:36:30",786645,3.555,117.4,2.753,0.606,2.941,101.1198,2.156,3.287,69.62,0,109.7,13.51,2.92,79.4
"2009-04-10 00:37:00",786646,4.564,116.7,5.215,0.686,2.973,101.1198,2.156,3.269,69.53,0,109.7,13.51,2.92,78.7
"2009-04-10 00:37:30",786647,7.08,120.4,6.415,1.205,7.609,101.1198,2.156,3.463,69.67,0,109.7,13.51,2.92,82.4
"2009-04-10 00:38:00",786648,6.944,119.3,5.566,0.813,7.673,101.1201,2.157,3.492,69.79,0,109.7,13.52,2.92,81.3
"2009-04-10 00:38:30",786649,6.578,128.9,4.569,0.818,7.813,101.1201,2.157,3.532,70.07,0,109.7,13.52,2.92,90.9
"2009-04-10 00:39:00",786650,6.708,129.8,4.342,0.797,7.495,101.1201,2.157,3.503,70.27,0,109.7,13.51,2.92,91.8
"2009-04-10 00:39:30",786651,5.673,128.2,6.019,1.221,5.196,101.1198,2.156,3.33,70.13,0,109.7,13.51,2.92,90.2
"2009-04-10 00:40:00",786652,4.2,121.5,8.07,1.062,3.252,101.1198,2.156,3.213,70.05,0,109.7,13.51,2.92,83.5
"2009-04-10 00:40:30",786653,5.187,104.7,7.12,1.688,5.63,101.1198,2.156,3.354,70.22,0,109.7,13.52,2.92,66.7
"2009-04-10 00:41:00",786654,5.902,109.5,6.738,1.002,7.505,101.1198,2.156,3.53,70.29,0,109.7,13.52,2.92,71.5
"2009-04-10 00:41:30",786655,6.377,113.3,4.531,0.674,7.918,101.1198,2.156,3.545,70.15,0,109.7,13.52,2.92,75.3
"2009-04-10 00:42:00",786656,6.047,118.1,5.275,0.951,6.408,101.1198,2.156,3.455,69.96,0,109.7,13.52,2.92,80.1
"2009-04-10 00:42:30",786657,6.191,108,7.238,1.34,5.93,101.1198,2.156,3.329,69.88,0,109.7,13.52,2.92,70.0
"2009-04-10 00:43:00",786658,5.194,110.9,5.26,0.633,3.21,101.1198,2.156,3.335,69.91,0,109.7,13.55,2.92,72.9
"2009-04-10 00:43:30",786659,5.935,118,8.32,1.282,5.973,101.1198,2.156,3.319,70.05,0,109.7,13.52,2.92,80.0
"2009-04-10 00:44:00",786660,5.949,112,5.879,1.003,6.926,101.1198,2.156,3.457,70.14,0,109.7,13.52,2.92,74.0
"2009-04-10 00:44:30",786661,6.869,112.8,4.824,0.756,7.572,101.1206,2.159,3.484,70.06,0,109.7,13.52,2.92,74.8
"2009-04-10 00:45:00",786662,6.303,118.4,7.234,1.247,5.83,101.1181,2.152,3.376,70,0,109.7,13.52,2.91,80.4
"2009-04-10 00:45:30",786663,5.652,118.7,4.815,1.28,5.383,101.1119,2.136,3.416,69.99,0,109.7,13.52,2.90,80.7
"2009-04-10 00:46:00",786664,6.133,126.2,5.419,0.925,4.745,101.1048,2.118,3.266,69.85,0,109.7,13.52,2.88,88.2
"2009-04-10 00:46:30",786665,7.068,125.8,6.519,1.184,6.348,101.1026,2.112,3.425,70.15,0,109.7,13.53,2.87,87.8
"2009-04-10 00:47:00",786666,7.053,125.7,8.1,1.186,6.856,101.0947,2.092,3.425,70.27,0,109.7,13.52,2.85,87.7
"2009-04-10 00:47:30",786667,7.965,125.3,5.294,0.799,7.127,101.0939,2.09,3.414,70.38,0,109.7,13.52,2.85,87.3
"2009-04-10 00:48:00",786668,7.386,125.9,7.618,1.174,6.044,101.0944,2.092,3.422,70.44,0,109.7,13.52,2.85,87.9
"2009-04-10 00:48:30",786669,7.586,134.1,4.791,0.971,6.816,101.0879,2.075,3.419,70.57,0,109.7,13.51,2.83,96.1
"2009-04-10 00:49:00",786670,7.81,130.9,6.66,1.091,6.43,101.0783,2.051,3.4,70.66,0,109.7,13.51,2.81,92.9
"2009-04-10 00:49:30",786671,7.479,131,5.344,1.152,6.359,101.0642,2.015,3.388,70.69,0,109.7,13.51,2.77,93.0
"2009-04-10 00:50:00",786672,7.781,130.4,6.237,1.183,6.168,101.0645,2.015,3.368,70.71,0,109.7,13.51,2.77,92.4
"2009-04-10 00:50:30",786673,8.24,131.5,5.631,0.976,6.774,101.0654,2.018,3.347,70.78,0,109.7,13.51,2.78,93.5
"2009-04-10 00:51:00",786674,7.456,126.7,8.5,1.178,6.367,101.0535,1.987,3.327,70.86,0,109.7,13.51,2.75,88.7
"2009-04-10 00:51:30",786675,8.12,126.9,5.894,0.968,6.491,101.0433,1.961,3.319,70.96,0,109.7,13.51,2.72,88.9
"2009-04-10 00:52:00",786676,7.38,124.8,7.357,1.225,6.612,101.0354,1.941,3.351,71.11,0,109.7,13.52,2.70,86.8
"2009-04-10 00:52:30",786677,6.817,123.5,5.178,1.086,6.243,101.0368,1.945,3.294,71.16,0,109.7,13.52,2.70,85.5
"2009-04-10 00:53:00",786678,6.746,124.8,6.512,1.118,5.39,101.0284,1.923,3.115,71.09,0,109.7,13.52,2.68,86.8
"2009-04-10 00:53:30",786679,6.124,128.4,6.813,1.44,5.119,101.0114,1.88,3.13,71.2,0,109.7,13.53,2.64,90.4
"2009-04-10 00:54:00",786680,7.526,126.3,8.18,0.984,5.97,101.0058,1.865,3.159,71.33,0,109.7,13.53,2.62,88.3
"2009-04-10 00:54:30",786681,7.546,129.2,6.679,0.88,6.76,101.0063,1.867,3.267,71.57,0,109.7,13.53,2.63,91.2
"2009-04-10 00:55:00",786682,7.078,134.5,4.693,0.745,7.331,101.0083,1.872,3.247,71.66,0,109.7,13.53,2.63,96.5
"2009-04-10 00:55:30",786683,6.964,130.8,5.33,1.248,6.076,100.9987,1.848,3.15,71.64,0,109.7,13.53,2.61,92.8
"2009-04-10 00:56:00",786684,6.966,125.6,5.443,1.138,6.067,100.9914,1.829,3.079,71.66,0,109.7,13.53,2.59,87.6
"2009-04-10 00:56:30",786685,6.304,123.5,7.285,1.116,4.583,100.9798,1.799,3.031,71.71,0,109.7,13.53,2.56,85.5
"2009-04-10 00:57:00",786686,6.961,126.3,5.892,1.119,5.39,100.975,1.787,3.058,71.85,0,109.7,13.53,2.55,88.3
"2009-04-10 00:57:30",786687,7.745,129.3,6.086,1.114,6.489,100.9764,1.791,3.122,71.99,0,109.7,13.53,2.55,91.3
"2009-04-10 00:58:00",786688,7.552,133.7,5.262,0.794,7.217,100.9758,1.789,3.157,72.15,0,109.7,13.53,2.55,95.7
"2009-04-10 00:58:30",786689,7.341,137.4,3.879,0.379,7.33,100.9699,1.774,3.11,72.18,0,109.7,13.53,2.53,99.4
"2009-04-10 00:59:00",786690,6.525,119.7,7.878,1.221,5.42,100.96,1.749,3.05,72.25,0,109.7,13.53,2.51,81.7
"2009-04-10 00:59:30",786691,7.449,122.5,6.806,1.298,5.597,100.9546,1.735,3.022,72.27,0,109.7,13.53,2.49,84.5
"2009-04-10 01:00:00",786692,6.786,121.9,6.47,1.126,4.539,100.9476,1.717,2.947,72.3,0,109.7,13.53,2.48,83.9
"2009-04-10 01:00:30",786693,7.671,125.3,5.058,1.114,6.132,100.9453,1.711,3.029,72.46,0,109.7,13.53,2.47,87.3
"2009-04-10 01:01:00",786694,8.25,126.9,4.784,1.021,6.861,100.9473,1.716,3.063,72.56,0,109.7,13.53,2.47,88.9
"2009-04-10 01:01:30",786695,7.853,127.5,4.422,0.727,7.373,100.9326,1.679,3.065,72.66,0,109.7,13.53,2.44,89.5
"2009-04-10 01:02:00",786696,7.324,132.8,5.236,0.601,7.348,100.9204,1.648,3.045,72.69,0,109.7,13.53,2.41,94.8
"2009-04-10 01:02:30",786697,6.525,132.4,3.634,1.243,6.104,100.9165,1.638,2.966,72.65,0,109.7,13.53,2.40,94.4
"2009-04-10 01:03:00",786698,4.577,124.6,2.942,0.604,2.903,100.9165,1.638,2.772,72.52,0,109.7,13.53,2.40,86.6
"2009-04-10 01:03:30",786699,5.895,130.9,6.368,1.265,4.452,100.9162,1.637,2.841,72.64,0,109.7,13.53,2.39,92.9
"2009-04-10 01:04:00",786700,6.62,135.2,5.931,1.129,5.971,100.9159,1.636,2.915,72.73,0,109.7,13.53,2.39,97.2
"2009-04-10 01:04:30",786701,7.095,136.4,3.46,0.673,7.537,100.9162,1.637,2.992,72.88,0,109.7,13.53,2.39,98.4
"2009-04-10 01:05:00",786702,7.176,132.8,3.909,0.826,7.426,100.912,1.626,2.994,72.9,0,109.7,13.53,2.38,94.8
"2009-04-10 01:05:30",786703,7.229,130.1,5.015,0.922,6.648,100.9057,1.61,2.93,72.91,0,109.7,13.53,2.37,92.1
"2009-04-10 01:06:00",786704,6.491,130.1,5.912,1.101,5.248,100.8964,1.587,2.845,72.83,0,109.7,13.53,2.34,92.1
"2009-04-10 01:06:30",786705,5.86,126.8,6.36,1.132,4.107,100.8876,1.564,2.765,72.82,0,109.7,13.53,2.32,88.8
"2009-04-10 01:07:00",786706,5.971,126.9,5.927,1.059,3.899,100.8826,1.551,2.716,72.81,0,109.7,13.53,2.31,88.9
"2009-04-10 01:07:30",786707,6.991,130.3,5.398,1.026,6.844,100.8826,1.551,2.93,73.07,0,109.7,13.53,2.31,92.3
"2009-04-10 01:08:00",786708,7.555,130.1,4.391,0.807,7.449,100.8826,1.551,2.934,73.14,0,109.7,13.53,2.31,92.1
"2009-04-10 01:08:30",786709,7.914,127.8,3.474,0.776,6.95,100.8826,1.551,2.915,73.19,0,109.7,13.53,2.31,89.8
"2009-04-10 01:09:00",786710,7.852,126.7,4.508,0.725,6.859,100.8823,1.55,2.917,73.24,0,109.7,13.54,2.31,88.7
"2009-04-10 01:09:30",786711,7.154,127.8,5.105,1.032,5.677,100.8752,1.532,2.86,73.31,0,109.7,13.54,2.29,89.8
"2009-04-10 01:10:00",786712,5.663,117,5.429,0.932,3.442,100.8656,1.508,2.693,73.23,0,109.7,13.54,2.27,79.0
"2009-04-10 01:10:30",786713,5.692,117.3,6.444,1.05,4.183,100.8582,1.489,2.71,73.32,0,109.7,13.54,2.25,79.3
"2009-04-10 01:11:00",786714,6.248,126.1,5.066,1.027,6.334,100.8486,1.465,2.789,73.43,0,109.7,13.54,2.22,88.1
"2009-04-10 01:11:30",786715,6.712,129.1,4.824,0.94,6.854,100.8486,1.465,2.85,73.49,0,109.7,13.54,2.22,91.1
"2009-04-10 01:12:00",786716,6.979,131.7,4.357,0.529,7.061,100.8486,1.465,2.834,73.61,0,109.7,13.54,2.22,93.7
"2009-04-10 01:12:30",786717,7.256,127.5,6.176,0.815,6.84,100.848,1.463,2.82,73.67,0,109.7,13.54,2.22,89.5
"2009-04-10 01:13:00",786718,6.675,128.3,5.621,1.255,5.263,100.8421,1.448,2.641,73.52,0,109.7,13.54,2.21,90.3
"2009-04-10 01:13:30",786719,6.552,125.4,6.43,1.326,4.275,100.8257,1.406,2.661,73.61,0,109.7,13.54,2.16,87.4
"2009-04-10 01:14:00",786720,5.976,122.7,6.135,1.2,3.892,100.8149,1.379,2.62,73.64,0,109.7,13.54,2.14,84.7
"2009-04-10 01:14:30",786721,7.504,128.8,3.698,0.863,6.631,100.8147,1.378,2.72,73.78,0,109.7,13.54,2.13,90.8
"2009-04-10 01:15:00",786722,7.456,126.2,4.792,0.977,6.517,100.8147,1.378,2.745,73.88,0,109.7,13.54,2.13,88.2
"2009-04-10 01:15:30",786723,7.723,124.8,4.698,0.872,6.647,100.809,1.364,2.743,73.94,0,109.6,13.54,2.12,86.8
"2009-04-10 01:16:00",786724,7.519,127.1,2.728,0.746,6.792,100.7946,1.327,2.742,74.01,0,109.7,13.54,2.08,89.1
"2009-04-10 01:16:30",786725,7.54,126.8,4.332,0.421,6.71,100.7807,1.291,2.721,74.08,0,109.6,13.54,2.05,88.8
"2009-04-10 01:17:00",786726,7.458,127.2,2.523,0.74,6.222,100.7807,1.291,2.674,74.1,0,109.6,13.54,2.05,89.2
"2009-04-10 01:17:30",786727,5.579,114,0.709,0.175,1.965,100.7785,1.286,2.479,74.01,0,109.6,13.54,2.04,76.0
"2009-04-10 01:18:00",786728,6.83,117.7,6.42,1.088,3.839,100.7635,1.247,2.427,74.03,0,109.7,13.54,2.00,79.7
"2009-04-10 01:18:30",786729,7.437,121,6.101,1.072,5.504,100.7468,1.205,2.62,74.34,0,109.7,13.54,1.96,83.0
"2009-04-10 01:19:00",786730,8.25,124.8,4.009,0.818,6.777,100.7471,1.206,2.644,74.43,0,109.7,13.54,1.96,86.8
"2009-04-10 01:19:30",786731,8.09,125.3,3.272,0.831,6.907,100.7422,1.193,2.64,74.52,0,109.6,13.54,1.95,87.3
"2009-04-10 01:20:00",786732,8.03,124.7,4.722,0.55,6.706,100.7253,1.15,2.601,74.61,0,109.6,13.54,1.91,86.7
"2009-04-10 01:20:30",786733,8.08,125.5,3.376,0.635,6.415,100.7137,1.12,2.585,74.72,0,109.6,13.54,1.88,87.5
"2009-04-10 01:21:00",786734,7.865,127.9,3.559,0.527,6.242,100.7143,1.122,2.555,74.8,0,109.6,13.54,1.88,89.9
"2009-04-10 01:21:30",786735,7.007,125,5.573,1.044,5.413,100.7007,1.087,2.526,74.85,0,109.6,13.54,1.84,87.0
"2009-04-10 01:22:00",786736,5.966,120.6,7.115,1.203,3.404,100.6863,1.05,2.218,74.69,0,109.6,13.54,1.81,82.6
"2009-04-10 01:22:30",786737,5.403,118.6,3.959,0.723,2.452,100.6852,1.048,2.281,74.88,0,109.6,13.54,1.80,80.6
"2009-04-10 01:23:00",786738,7.073,127.9,4.554,0.949,6.103,100.6849,1.047,2.406,75.12,0,109.6,13.54,1.80,89.9
"2009-04-10 01:23:30",786739,7.088,129.5,4.051,0.947,6.509,100.6733,1.017,2.421,75.3,0,109.6,13.54,1.77,91.5
"2009-04-10 01:24:00",786740,7.227,130.8,3.251,0.665,6.568,100.6591,0.981,2.446,75.41,0,109.6,13.54,1.74,92.8
"2009-04-10 01:24:30",786741,7.39,129.9,3.131,0.616,6.41,100.6566,0.975,2.425,75.49,0,109.6,13.54,1.73,91.9
"2009-04-10 01:25:00",786742,7.201,129.2,4.766,0.905,5.827,100.6595,0.982,2.323,75.53,0,109.6,13.55,1.74,91.2
"2009-04-10 01:25:30",786743,6.313,126.9,6.117,1.12,3.984,100.6546,0.97,2.193,75.51,0,109.6,13.55,1.73,88.9
"2009-04-10 01:26:00",786744,6.362,126.3,6.457,1.235,4.169,100.6394,0.931,2.302,75.72,0,109.6,13.55,1.69,88.3
"2009-04-10 01:26:30",786745,7.668,132.7,4.422,0.837,6.158,100.6301,0.907,2.314,75.86,0,109.6,13.55,1.66,94.7
"2009-04-10 01:27:00",786746,7.534,132.3,4.928,0.979,6.333,100.6283,0.903,2.283,75.98,0,109.6,13.55,1.66,94.3
"2009-04-10 01:27:30",786747,7.962,132.3,4.237,0.873,6.492,100.6301,0.907,2.278,76.07,0,109.6,13.56,1.66,94.3
"2009-04-10 01:28:00",786748,8.09,131.8,3.49,0.659,6.919,100.6224,0.888,2.292,76.18,0,109.6,13.56,1.64,93.8
"2009-04-10 01:28:30",786749,8.04,129.5,3.935,0.645,6.601,100.6097,0.855,2.293,76.27,0,109.6,13.55,1.61,91.5
"2009-04-10 01:29:00",786750,8.09,128.8,3.895,0.533,6.565,100.5981,0.826,2.236,76.33,0,109.6,13.55,1.58,90.8
"2009-04-10 01:29:30",786751,7.866,130,3.853,0.822,5.983,100.5967,0.822,2.238,76.43,0,109.6,13.55,1.58,92.0
"2009-04-10 01:30:00",786752,7.044,126.3,5.924,1.14,4.367,100.5936,0.814,2.158,76.47,0,109.6,13.55,1.57,88.3
"2009-04-10 01:30:30",786753,6.176,122.3,4.005,0.802,2.38,100.58,0.779,2.004,76.43,0,109.6,13.56,1.53,84.3
"2009-04-10 01:31:00",786754,6.598,126.6,5.855,1.186,3.662,100.5644,0.74,1.993,76.49,0,109.6,13.56,1.49,88.6
"2009-04-10 01:31:30",786755,7.824,133.4,4.617,0.897,6.534,100.5673,0.747,2.144,76.77,0,109.6,13.56,1.50,95.4
"2009-04-10 01:32:00",786756,8.16,134.5,3.979,0.643,7.111,100.567,0.746,2.146,76.86,0,109.6,13.56,1.50,96.5
"2009-04-10 01:32:30",786757,8.13,134.6,3.052,0.723,6.51,100.5577,0.722,2.131,76.96,0,109.6,13.56,1.48,96.6
"2009-04-10 01:33:00",786758,8.15,134.5,3.567,0.51,6.442,100.5466,0.694,2.105,77.02,0,109.6,13.56,1.45,96.5
"2009-04-10 01:33:30",786759,7.69,137.4,2.466,0.675,6.491,100.5393,0.676,2.082,77.1,0,109.6,13.56,1.43,99.4
"2009-04-10 01:34:00",786760,7.544,137,4.111,0.604,6.415,100.5368,0.669,2.071,77.19,0,109.5,13.56,1.42,99.0
"2009-04-10 01:34:30",786761,7.389,138.1,3.351,0.648,6.015,100.5348,0.664,2.058,77.26,0,109.6,13.56,1.42,100.1
"2009-04-10 01:35:00",786762,7.35,139.6,3.328,0.645,5.849,100.5237,0.636,2.037,77.35,0,109.6,13.56,1.39,101.6
"2009-04-10 01:35:30",786763,7.096,140.3,3.258,0.746,5.788,100.5186,0.623,2.016,77.43,0,109.6,13.55,1.38,102.3
"2009-04-10 01:36:00",786764,6.904,140.4,3.415,0.743,5.631,100.5133,0.609,2.007,77.47,0,109.6,13.55,1.36,102.4
"2009-04-10 01:36:30",786765,6.66,138.8,5.095,0.847,5.224,100.5079,0.596,1.931,77.5,0,109.6,13.55,1.35,100.8
"2009-04-10 01:37:00",786766,4.519,126.9,0.801,0.053,1.539,100.5068,0.593,1.688,77.33,0,109.6,13.58,1.35,88.9
"2009-04-10 01:37:30",786767,5.196,130.2,5.688,1.144,3.272,100.5071,0.593,1.842,77.54,0,109.6,13.55,1.35,92.2
"2009-04-10 01:38:00",786768,6.444,134.9,6.055,1.128,5.311,100.5079,0.596,1.863,77.61,0,109.6,13.56,1.35,96.9
"2009-04-10 01:38:30",786769,6.99,136.9,3.906,0.661,6.917,100.5079,0.596,1.963,77.76,0,109.6,13.56,1.35,98.9
"2009-04-10 01:39:00",786770,7.275,137.8,3.963,0.544,6.71,100.509,0.598,1.951,77.83,0,109.6,13.56,1.35,99.8
"2009-04-10 01:39:30",786771,7.303,139.5,2.551,0.481,6.666,100.509,0.598,1.967,77.88,0,109.6,13.56,1.35,101.5
"2009-04-10 01:40:00",786772,7.154,139.4,2.73,0.655,6.384,100.5042,0.586,1.934,77.93,0,109.6,13.56,1.34,101.4
"2009-04-10 01:40:30",786773,7.284,139,2.964,0.64,6.087,100.4989,0.572,1.938,77.98,0,109.6,13.56,1.33,101.0
"2009-04-10 01:41:00",786774,7.254,138.8,3.602,0.664,5.869,100.4924,0.556,1.935,78.01,0,109.6,13.56,1.31,100.8
"2009-04-10 01:41:30",786775,7.147,139.1,3.693,0.745,5.585,100.4907,0.552,1.934,78.08,0,109.6,13.56,1.31,101.1
"2009-04-10 01:42:00",786776,6.301,134.7,5.319,1.165,3.504,100.4799,0.524,1.813,78.02,0,109.6,13.56,1.28,96.7
"2009-04-10 01:42:30",786777,5.237,131.4,0.371,0.08,1.701,100.4754,0.513,1.693,77.96,0,109.6,13.59,1.27,93.4
"2009-04-10 01:43:00",786778,6.851,140.4,5.779,1.138,4.978,100.4754,0.513,1.763,78.05,0,109.6,13.56,1.27,102.4
"2009-04-10 01:43:30",786779,7.423,142.7,4.478,0.76,6.421,100.4754,0.513,1.897,78.23,0,109.6,13.57,1.27,104.7
"2009-04-10 01:44:00",786780,7.362,143.8,3.855,0.667,6.946,100.472,0.504,1.883,78.28,0,109.6,13.57,1.26,105.8
"2009-04-10 01:44:30",786781,7.355,144.9,2.716,0.636,6.864,100.4641,0.484,1.865,78.34,0,109.6,13.57,1.24,106.9
"2009-04-10 01:45:00",786782,7.406,143.9,3.323,0.667,6.388,100.4581,0.469,1.857,78.39,0,109.6,13.57,1.22,105.9
"2009-04-10 01:45:30",786783,7.499,143.7,3.309,0.66,6.087,100.4544,0.459,1.843,78.44,0,109.6,13.57,1.21,105.7
"2009-04-10 01:46:00",786784,7.561,144.7,3.199,0.632,5.779,100.4423,0.428,1.827,78.5,0,109.6,13.57,1.18,106.7
"2009-04-10 01:46:30",786785,7.445,147,2.578,0.676,5.82,100.4414,0.426,1.83,78.59,0,109.6,13.57,1.18,109.0
"2009-04-10 01:47:00",786786,7.183,147.6,3.548,0.686,5.662,100.4414,0.426,1.823,78.64,0,109.7,13.57,1.18,109.6
"2009-04-10 01:47:30",786787,6.92,149.2,3.508,0.491,5.832,100.4377,0.417,1.808,78.71,0,109.6,13.57,1.17,111.2
"2009-04-10 01:48:00",786788,6.685,149.3,3.77,0.556,5.703,100.431,0.399,1.791,78.73,0,109.6,13.57,1.15,111.3
"2009-04-10 01:48:30",786789,6.323,147.9,5.209,0.85,5.203,100.4259,0.386,1.799,78.77,0,109.6,13.57,1.14,109.9
"2009-04-10 01:49:00",786790,4.885,142.8,4.721,1.133,2.767,100.4261,0.387,1.561,78.6,0,109.6,13.57,1.14,104.8
"2009-04-10 01:49:30",786791,4.013,141.6,0.82,0.025,1.557,100.4233,0.38,1.475,78.55,0,109.6,13.6,1.13,103.6
"2009-04-10 01:50:00",786792,5.043,148.9,6.167,1.192,4.534,100.4182,0.367,1.637,78.78,0,109.6,13.57,1.12,110.9